EHI
0 1 7 14 17 16 16 15 12 9 7 6 5 5 5 5 4 4 2 1 0 0 0 0 0 0 0 0 0 0 0 0 0 0 0 0 0 0 0 0 0 0 0
1 3 10 17 19 18 18 16 13 9 7 7 7 7 5 4 4 3 2 1 0 0 0 0 0 0 0 0 0 0 0 0 0 0 0 0 0 0 0 0 0 0 0
2 5 11 18 20 20 20 19 16 11 9 9 11 10 7 5 3 3 2 1 0 0 0 0 0 0 0 0 0 0 0 0 0 0 0 0 0 0 0 0 0 0 0
3 5 12 19 21 21 22 21 19 15 12 11 11 11 8 6 4 4 3 1 0 0 0 0 0 0 0 0 0 0 0 0 0 0 0 0 0 0 0 0 0 0 0
2 4 11 20 22 22 23 22 20 16 13 11 10 9 7 6 5 4 3 1 1 1 0 0 0 0 0 0 0 0 0 0 0 0 0 0 0 0 0 0 0 0 0
2 3 10 20 23 22 23 21 18 14 11 10 10 8 6 5 4 4 3 3 3 2 1 0 0 0 0 0 0 0 0 0 0 0 0 0 0 0 0 1 0 0 0
1 2 8 17 22 22 22 19 15 12 10 10 9 8 6 5 4 4 4 4 4 2 1 1 1 0 1 1 0 0 0 0 0 0 0 0 0 0 0 1 1 0 0
2 3 8 15 20 21 21 19 15 12 11 10 10 9 8 7 6 5 4 4 3 2 2 2 2 1 2 1 0 0 0 0 0 0 0 0 0 0 0 0 1 0 0
4 6 9 13 17 19 19 18 15 13 12 11 10 10 9 8 7 6 4 3 3 3 3 3 2 2 2 1 0 0 0 0 0 0 0 0 0 0 0 0 1 1 0
5 6 9 12 14 16 15 15 13 13 12 10 9 9 7 7 7 6 4 3 3 3 3 2 1 1 1 0 0 0 0 0 0 0 0 0 0 0 0 0 0 1 1
4 4 6 9 11 11 11 11 10 10 10 9 7 6 5 4 4 3 2 2 3 3 2 0 0 0 0 0 0 0 0 0 0 0 0 0 0 0 0 0 0 0 0
3 2 2 5 7 8 9 9 8 8 8 7 5 4 3 2 2 1 0 1 1 1 1 0 0 0 0 0 0 0 0 0 0 0 0 0 0 0 0 0 0 0 0
2 1 0 3 6 8 9 9 8 7 7 6 4 2 1 1 0 0 0 0 0 0 0 0 0 0 0 0 0 0 0 0 0 0 0 0 0 0 0 0 0 0 0
3 1 0 2 5 8 9 9 9 8 8 7 4 3 2 1 0 0 0 0 0 0 0 0 0 0 0 0 0 0 0 0 0 0 0 0 0 0 0 0 0 0 1
4 2 1 1 3 7 9 10 10 9 9 8 5 3 2 1 0 0 0 0 0 0 0 0 0 0 0 0 0 0 0 0 0 0 0 0 0 0 0 0 0 0 1
5 4 2 1 2 5 8 9 10 10 9 8 5 3 2 1 0 0 0 0 0 0 0 0 0 0 0 0 0 0 0 0 0 0 0 0 0 0 0 0 0 0 1
6 5 3 2 2 3 6 8 9 9 8 7 4 3 2 1 0 0 0 0 0 0 0 0 0 0 0 0 0 0 0 0 0 0 0 0 0 0 0 0 0 0 0
6 5 4 3 3 3 4 6 7 7 7 6 4 2 1 0 0 0 0 0 0 0 0 0 0 0 0 0 0 0 0 0 0 0 0 0 0 0 0 0 0 0 0
6 5 4 3 3 3 3 4 5 6 6 5 3 1 0 0 0 0 0 0 0 0 0 0 0 0 0 0 0 0 0 0 0 0 0 0 0 0 0 0 0 0 0
6 6 4 3 3 4 3 2 4 4 5 5 3 1 0 0 0 0 0 0 0 0 0 0 0 0 0 0 0 0 0 0 0 0 0 0 0 0 0 0 0 0 0
4 5 5 3 3 4 3 2 2 3 4 5 3 1 0 0 0 0 0 0 0 0 0 0 0 0 0 0 0 0 0 0 0 0 0 0 0 0 0 0 0 0 0
2 4 4 2 3 4 3 1 1 2 4 4 3 1 0 0 0 0 0 0 0 0 0 0 0 0 0 0 0 0 0 0 0 0 0 0 0 0 0 0 0 0 0
1 2 3 2 2 3 2 0 0 1 3 4 3 1 0 0 0 0 0 0 0 0 0 0 0 0 0 0 0 0 0 0 0 0 0 0 0 0 0 0 0 0 0
0 1 2 3 3 3 1 0 0 1 2 3 2 1 0 0 0 0 0 0 0 0 0 0 0 0 0 0 0 0 0 0 0 0 0 0 0 0 0 0 0 0 0
0 0 1 2 2 2 1 0 0 0 1 2 2 1 0 0 0 0 0 0 0 0 0 0 0 0 0 0 0 0 0 0 0 0 0 0 0 0 0 0 0 0 0
0 0 0 1 1 1 0 0 0 0 0 1 1 0 0 0 0 0 0 0 0 0 0 0 0 0 0 0 0 0 0 0 0 0 0 0 0 0 0 0 0 0 0
Wind_Speed
5 6 12 13 14 14 14 14 14 14 14 14 14 14 14 14 14 14 14 15 15 15 16 16 16 17 17 17 17 18 18 18 18 17 16 16 17 17 17 17 15 11 17
8 8 13 14 15 15 15 14 14 14 13 13 13 14 14 14 14 14 14 14 15 15 15 16 16 16 17 17 17 17 17 17 17 16 15 13 14 16 17 16 15 11 17
9 8 11 14 15 15 15 14 14 14 13 13 13 13 14 13 13 13 14 14 15 15 15 15 16 16 16 16 16 16 16 17 16 15 12 7 10 16 17 16 16 17 16
10 8 10 14 15 15 15 14 14 14 13 13 13 13 14 13 13 13 14 14 14 14 15 15 15 16 16 16 16 16 16 17 16 13 8 7 7 15 16 16 16 16 16
8 7 10 14 15 15 15 14 14 14 13 13 13 13 14 13 13 13 14 14 14 14 14 14 15 15 15 15 16 16 16 16 15 11 7 7 6 14 16 16 16 16 15
8 7 10 14 15 15 14 14 14 13 13 13 13 13 13 13 13 13 13 13 14 14 14 14 14 15 15 15 16 16 16 15 12 7 7 6 6 13 15 15 15 15 15
8 7 9 14 14 14 14 13 13 13 13 13 12 12 13 13 13 13 13 13 14 14 14 14 14 14 15 15 16 16 16 14 9 7 6 6 8 14 15 14 14 14 14
8 7 8 13 14 14 13 13 13 12 12 12 12 12 12 13 13 13 13 13 13 14 14 14 14 15 15 15 16 15 14 12 10 8 6 6 10 14 14 14 13 13 13
7 7 6 7 9 12 13 12 12 12 11 11 11 12 12 12 12 12 13 13 13 13 13 14 14 15 15 15 16 16 15 13 7 5 6 5 10 13 13 13 13 13 12
6 6 6 6 6 6 7 10 11 11 11 11 11 11 11 11 11 12 11 12 13 13 13 13 14 15 15 15 15 15 14 10 6 5 4 5 11 12 13 13 13 12 12
6 5 6 6 6 6 5 8 9 10 10 10 9 11 9 5 5 7 9 11 11 12 13 13 14 15 14 14 14 14 10 5 5 4 3 8 11 12 12 12 12 12 12
7 5 5 6 6 5 5 4 4 4 5 5 5 6 5 4 5 6 9 10 10 11 11 12 13 12 9 6 8 10 5 5 5 4 4 9 10 11 12 12 12 12 12
7 6 5 6 6 6 4 3 3 3 3 4 5 5 5 4 4 4 3 5 5 7 5 7 7 5 5 4 4 5 5 5 3 3 4 9 10 10 11 11 11 11 11
6 6 5 5 5 5 5 4 3 3 3 3 4 5 5 4 4 3 3 3 3 3 4 4 4 5 6 6 6 6 6 4 4 3 4 9 9 9 10 10 11 11 11
6 6 5 5 5 5 5 4 4 3 4 4 4 4 5 4 5 4 3 3 3 3 4 4 4 5 5 5 6 6 6 5 5 4 4 9 9 9 10 10 10 10 10
6 6 5 5 4 5 4 4 4 4 4 4 4 4 5 4 5 5 4 4 3 3 3 4 5 5 4 5 6 6 5 4 5 5 4 6 10 9 9 10 9 9 9
6 6 5 5 4 4 5 4 4 4 4 4 4 5 5 5 5 5 5 4 3 3 4 5 5 5 5 5 5 5 5 5 5 5 5 4 5 8 9 9 9 8 8
5 6 5 4 5 4 3 4 4 4 4 3 3 4 5 6 6 5 5 4 4 4 4 5 4 5 4 4 4 4 4 4 5 4 4 4 4 4 6 9 9 8 7
5 5 5 4 5 4 3 3 4 4 4 3 3 3 4 5 6 5 4 4 5 4 4 5 4 4 5 5 4 4 3 3 3 4 4 4 4 4 4 6 8 8 7
3 4 5 4 4 4 3 3 3 3 3 3 3 4 5 4 5 5 4 5 5 5 4 5 5 4 5 5 5 4 3 3 3 3 3 3 3 4 4 4 4 5 7
3 3 4 4 4 4 3 3 4 4 3 3 3 4 5 5 5 5 5 5 5 5 6 7 6 6 4 4 4 3 3 3 3 2 2 2 3 3 3 3 3 3 3
3 3 3 4 4 4 3 2 2 3 3 3 3 3 4 5 5 5 6 5 5 4 6 6 7 4 3 3 4 4 2 2 2 2 2 1 2 2 2 2 2 2 2
3 3 3 4 4 4 3 3 2 2 2 2 3 3 4 5 6 5 6 5 5 5 6 7 7 6 5 2 2 4 4 3 0 2 1 1 1 1 1 1 1 1 2
3 2 3 3 4 4 4 4 5 4 3 3 3 3 4 5 5 6 6 6 6 5 6 7 6 4 6 5 2 1 2 4 4 1 1 1 1 0 0 0 1 1 1
1 1 2 3 4 4 4 5 5 4 3 2 2 3 3 3 4 5 5 6 5 5 6 6 5 5 5 5 4 3 2 1 2 3 2 1 1 1 1 1 1 0 0
0 1 1 2 3 3 4 4 5 5 4 3 4 4 4 3 3 4 5 5 5 5 6 6 6 6 5 5 3 3 4 4 3 3 3 2 2 2 1 1 1 1 1
Wind_Direction
170 174 156 146 138 131 125 120 115 111 107 103 101 100 98 95 93 90 87 85 83 82 82 81 80 80 79 77 75 74 72 70 68 67 68 71 74 76 75 73 73 73 79
157 165 152 145 139 132 126 122 118 113 109 106 104 102 100 98 96 93 91 88 85 84 83 82 82 81 80 78 76 74 73 72 69 65 62 65 71 76 76 75 76 79 80
146 154 147 142 139 133 128 124 120 116 112 109 106 104 101 99 98 96 93 90 87 85 84 82 82 81 81 80 78 76 75 73 68 61 57 55 69 76 78 77 76 79 80
143 146 144 141 139 134 129 125 122 119 115 111 107 105 102 100 98 97 94 91 89 87 85 83 83 82 81 80 80 79 77 72 64 58 54 49 62 77 77 78 77 77 80
135 140 143 140 138 134 130 127 124 120 116 112 108 105 103 101 99 97 95 92 90 88 87 86 84 83 81 80 81 80 78 72 63 57 52 48 57 75 75 76 77 77 79
133 137 142 140 138 135 131 129 126 122 119 115 111 109 107 104 102 100 97 96 94 91 90 88 85 84 82 83 83 82 78 71 60 53 49 48 58 75 76 75 77 76 76
137 141 144 139 137 135 133 131 128 126 124 119 115 113 111 108 106 104 102 99 96 93 92 89 86 85 84 84 84 83 79 70 63 55 48 48 64 73 74 75 75 76 75
137 136 137 140 137 133 132 131 129 128 126 123 120 116 113 111 109 108 106 102 99 96 93 90 88 87 84 83 82 80 75 69 67 61 49 51 68 73 73 73 74 75 75
126 126 126 132 133 132 130 129 129 127 125 124 121 117 113 111 111 109 106 105 102 99 95 92 91 89 85 83 82 78 73 65 59 55 56 54 70 74 74 73 74 75 76
116 123 126 125 123 125 129 129 126 125 124 122 118 112 109 109 110 109 106 105 103 100 95 92 92 90 86 83 81 77 69 61 56 53 48 66 73 76 76 75 75 75 76
116 122 127 127 126 124 127 129 125 123 121 119 116 111 105 101 102 104 103 104 103 101 97 94 92 88 83 79 75 71 63 55 53 51 51 72 77 79 78 77 76 76 76
143 137 135 133 132 128 124 121 119 116 114 110 113 115 110 106 104 102 100 102 100 95 95 94 90 82 76 71 67 65 60 51 52 46 59 72 79 82 81 79 77 77 77
151 143 137 141 135 132 128 125 114 113 113 111 114 117 113 104 103 95 96 92 86 83 79 82 75 69 71 71 68 66 61 55 46 40 57 72 77 82 84 83 80 78 77
145 144 138 134 140 139 134 133 131 129 127 127 127 126 124 120 114 115 109 104 96 92 91 82 82 80 75 72 74 72 64 60 48 36 52 65 74 83 88 87 84 80 78
148 148 148 137 142 145 140 144 139 140 139 138 135 134 134 134 134 128 121 111 107 104 104 100 94 91 83 75 72 71 64 60 53 43 43 57 67 77 84 86 86 83 79
159 157 153 148 143 148 150 150 150 146 142 140 142 143 140 141 142 138 132 125 121 118 111 109 108 100 90 85 76 68 64 58 54 47 40 46 55 64 75 80 81 81 80
166 162 160 156 146 146 151 154 150 151 145 149 150 146 145 143 146 144 139 136 135 125 116 110 103 99 95 88 78 68 63 57 56 50 44 40 39 49 62 72 74 77 77
158 160 161 154 151 151 157 156 154 152 145 149 152 151 148 145 146 142 143 143 139 128 122 119 114 106 97 93 82 66 59 58 57 55 51 46 38 36 46 61 64 67 72
158 160 158 149 153 158 154 158 153 151 149 149 149 149 152 152 149 144 145 148 143 134 129 129 118 118 113 102 89 70 55 55 51 58 57 48 45 45 37 46 52 55 63
143 148 154 157 155 154 147 149 144 138 151 152 156 155 152 156 152 143 141 145 148 142 138 134 128 117 120 118 98 70 47 42 43 49 55 48 49 50 47 41 35 37 50
129 140 147 157 161 150 152 169 169 171 173 167 164 159 159 158 154 150 147 149 154 155 154 148 137 128 125 128 104 78 36 34 40 34 44 52 47 44 53 46 38 30 23
162 169 167 166 169 167 171 178 183 168 175 178 166 166 164 162 163 157 154 161 162 153 150 153 148 142 154 157 134 126 97 15 7 11 21 54 47 38 53 49 50 44 28
182 190 190 185 173 169 164 142 122 124 128 159 178 181 178 174 169 164 163 164 169 167 169 169 168 158 164 184 162 146 152 183 226 337 352 6 52 59 38 40 51 42 34
210 204 191 186 172 169 162 162 161 175 182 196 189 186 182 179 176 169 167 167 173 175 175 180 177 171 164 169 169 152 145 150 153 164 320 328 340 347 288 346 34 22 27
197 187 185 187 180 173 171 178 177 186 197 174 165 167 177 183 184 176 171 172 176 179 181 182 180 179 177 175 169 154 131 113 139 153 198 262 306 291 262 237 216 232 331
109 170 171 177 193 185 181 184 191 188 182 172 179 182 183 186 187 183 177 178 182 182 186 188 187 187 189 181 177 169 163 165 174 162 172 207 246 275 277 259 233 225 235